TimeMDT,TemperatureF,Dew PointF,Humidity,Sea Level PressureIn,VisibilityMPH,Wind Direction,Wind SpeedMPH,Gust SpeedMPH,PrecipitationIn,Events,Conditions,WindDirDegrees,DateUTC
12:53 AM,10.0,6.1,84,29.90,0.8,NNE,21.9,-,0.01,,Mist,20,2013-04-09 06:53:00
1:00 AM,10.4,6.8,85,29.83,1.2,NNE,26.5,32.2,N/A,,Overcast,30,2013-04-09 07:00:00
1:17 AM,10.4,5.0,79,29.84,1.5,NE,28.8,35.7,N/A,,Haze,40,2013-04-09 07:17:00
1:40 AM,10.4,6.8,85,29.84,2.5,NE,26.5,34.5,N/A,,Overcast,40,2013-04-09 07:40:00
1:49 AM,10.4,5.0,79,29.84,3.0,NE,27.6,35.7,N/A,,Haze,40,2013-04-09 07:49:00
1:53 AM,10.0,5.0,80,29.91,3.0,NE,26.5,35.7,N/A,,Haze,40,2013-04-09 07:53:00
2:18 AM,8.6,3.2,79,29.85,2.0,NE,23.0,-,N/A,,Haze,50,2013-04-09 08:18:00
2:29 AM,8.6,3.2,79,29.85,1.2,NE,27.6,34.5,N/A,,Overcast,40,2013-04-09 08:29:00
2:53 AM,8.1,3.0,80,29.97,1.5,NE,26.5,38.0,0.00,Snow,Light Snow,40,2013-04-09 08:53:00
3:19 AM,8.6,3.2,79,29.85,0.5,NE,32.2,40.3,0.00,Fog-Snow,Snow,40,2013-04-09 09:19:00
3:40 AM,8.6,3.2,79,29.87,0.2,NE,26.5,36.8,0.01,Fog,Light Freezing Fog,40,2013-04-09 09:40:00
3:53 AM,8.1,3.9,83,29.99,0.2,NE,25.3,35.7,0.02,Fog,Light Freezing Fog,40,2013-04-09 09:53:00
4:21 AM,8.6,3.2,79,29.85,0.5,NE,24.2,35.7,0.00,Fog-Snow,Snow,40,2013-04-09 10:21:00
4:34 AM,8.6,3.2,79,29.85,0.8,NE,26.5,35.7,0.00,Snow,Light Snow,40,2013-04-09 10:34:00
4:53 AM,7.0,3.0,84,30.02,0.8,NE,25.3,31.1,0.00,Snow,Light Snow,40,2013-04-09 10:53:00
5:02 AM,6.8,3.2,85,29.88,1.0,NE,23.0,28.8,0.00,Snow,Light Snow,50,2013-04-09 11:02:00
5:35 AM,6.8,3.2,85,29.88,1.0,NE,28.8,36.8,0.00,Snow,Light Snow,40,2013-04-09 11:35:00
5:53 AM,7.0,3.0,84,30.06,1.2,NE,26.5,39.1,0.00,Snow,Light Snow,40,2013-04-09 11:53:00
6:05 AM,6.8,3.2,85,29.89,2.0,NE,31.1,40.3,0.00,Snow,Blowing Snow,40,2013-04-09 12:05:00
6:13 AM,6.8,3.2,85,29.91,2.0,NE,28.8,40.3,0.00,Snow,Blowing Snow,40,2013-04-09 12:13:00
6:23 AM,6.8,3.2,85,29.92,3.0,NE,29.9,36.8,0.00,Snow,Blowing Snow,40,2013-04-09 12:23:00
6:53 AM,8.1,3.0,80,30.10,4.0,NE,28.8,33.4,0.00,Snow,Blowing Snow,40,2013-04-09 12:53:00
7:07 AM,8.6,1.4,73,29.92,2.5,NNE,29.9,40.3,N/A,Snow,Blowing Snow,30,2013-04-09 13:07:00
7:24 AM,8.6,1.4,73,29.93,4.0,NE,23.0,33.4,0.00,Snow,Light Snow,40,2013-04-09 13:24:00
7:53 AM,8.1,1.9,76,30.14,6.0,NE,27.6,33.4,0.00,Snow,Blowing Snow,40,2013-04-09 13:53:00
8:40 AM,8.6,1.4,73,29.96,1.8,NE,29.9,34.5,0.00,Snow,Light Snow,40,2013-04-09 14:40:00
8:53 AM,8.1,1.9,76,30.17,1.5,NE,24.2,33.4,0.00,Snow,Light Snow,40,2013-04-09 14:53:00
9:50 AM,8.6,3.2,79,29.96,1.2,NE,23.0,29.9,0.00,Snow,Light Snow,40,2013-04-09 15:50:00
9:53 AM,9.0,3.0,77,30.19,1.2,NE,25.3,33.4,0.00,Snow,Light Snow,40,2013-04-09 15:53:00
10:00 AM,8.6,3.2,79,29.96,1.2,NE,26.5,35.7,0.00,Snow,Light Snow,40,2013-04-09 16:00:00
10:18 AM,8.6,1.4,73,29.98,1.2,NE,27.6,35.7,0.00,Snow,Light Snow,40,2013-04-09 16:18:00
10:42 AM,8.6,1.4,73,29.97,0.8,NE,26.5,35.7,0.00,Snow,Light Snow,40,2013-04-09 16:42:00
10:53 AM,9.0,1.9,73,30.20,1.0,NE,26.5,34.5,0.00,Snow,Light Snow,40,2013-04-09 16:53:00
11:29 AM,10.4,3.2,73,29.99,0.8,NE,26.5,33.4,0.00,Snow,Light Snow,40,2013-04-09 17:29:00
11:41 AM,8.6,3.2,79,29.98,0.8,NE,27.6,33.4,0.00,Snow,Light Snow,40,2013-04-09 17:41:00
11:47 AM,8.6,3.2,79,29.98,1.0,NE,25.3,33.4,0.00,Snow,Light Snow,40,2013-04-09 17:47:00
11:53 AM,8.1,1.9,76,30.22,0.8,NE,26.5,32.2,0.00,Snow,Light Snow,40,2013-04-09 17:53:00
12:03 PM,8.6,3.2,79,29.99,0.5,NE,26.5,33.4,0.00,Snow,Snow,40,2013-04-09 18:03:00
12:15 PM,8.6,3.2,79,29.99,0.2,NE,26.5,33.4,0.01,Snow,Heavy Snow,40,2013-04-09 18:15:00
12:23 PM,8.6,3.2,79,29.98,0.2,NE,26.5,32.2,0.01,Fog-Snow,Heavy Snow,40,2013-04-09 18:23:00
12:32 PM,8.6,3.2,79,29.98,0.2,NE,27.6,33.4,0.01,,Haze,40,2013-04-09 18:32:00
12:44 PM,8.6,3.2,79,29.98,0.2,NE,26.5,33.4,0.01,,Haze,40,2013-04-09 18:44:00
12:53 PM,9.0,3.0,77,30.22,0.2,NE,24.2,34.5,0.02,,Haze,40,2013-04-09 18:53:00
1:00 PM,8.6,3.2,79,29.98,0.2,NE,21.9,31.1,N/A,,Haze,40,2013-04-09 19:00:00
1:13 PM,8.6,3.2,79,29.97,0.5,NE,23.0,31.1,0.00,Snow,Snow,40,2013-04-09 19:13:00
1:22 PM,8.6,3.2,79,29.97,1.0,NE,24.2,31.1,0.00,Snow,Light Snow,40,2013-04-09 19:22:00
1:34 PM,10.4,3.2,73,29.97,0.5,NE,24.2,31.1,0.00,Snow,Snow,40,2013-04-09 19:34:00
1:53 PM,12.0,5.0,73,30.21,0.5,NNE,19.6,26.5,0.00,Snow,Snow,30,2013-04-09 19:53:00
2:13 PM,10.4,3.2,73,29.98,1.0,NE,21.9,-,0.00,Snow,Light Snow,40,2013-04-09 20:13:00
2:32 PM,10.4,3.2,73,29.98,0.8,NNE,20.7,-,0.00,Snow,Light Snow,30,2013-04-09 20:32:00
2:51 PM,10.4,5.0,79,29.98,0.5,NE,24.2,27.6,0.00,Snow,Snow,40,2013-04-09 20:51:00
2:53 PM,10.9,5.0,77,30.22,0.5,NNE,23.0,-,0.00,Snow,Snow,30,2013-04-09 20:53:00
3:04 PM,10.4,3.2,73,29.98,1.0,NNE,24.2,-,0.00,Snow,Light Snow,30,2013-04-09 21:04:00
3:29 PM,10.4,3.2,73,29.98,0.8,NNE,20.7,31.1,0.00,Snow,Light Snow,30,2013-04-09 21:29:00
3:37 PM,10.4,3.2,73,29.98,1.5,NNE,24.2,27.6,0.00,Snow,Light Snow,30,2013-04-09 21:37:00
3:53 PM,10.9,3.9,73,30.22,1.8,NNE,20.7,-,0.00,Snow,Light Snow,20,2013-04-09 21:53:00
4:06 PM,10.4,3.2,73,29.99,2.5,NNE,24.2,29.9,0.00,Snow,Light Snow,30,2013-04-09 22:06:00
4:15 PM,10.4,3.2,73,29.99,3.0,NNE,23.0,-,0.00,Snow,Light Snow,30,2013-04-09 22:15:00
4:53 PM,10.9,3.9,73,30.25,3.0,NNE,23.0,-,0.00,Snow,Light Snow,30,2013-04-09 22:53:00
5:22 PM,10.4,3.2,73,30.01,2.5,NNE,21.9,-,0.00,Snow,Light Snow,30,2013-04-09 23:22:00
5:33 PM,10.4,3.2,73,30.01,3.0,NNE,18.4,-,0.00,Snow,Light Snow,30,2013-04-09 23:33:00
5:53 PM,10.9,3.9,73,30.28,4.0,NE,18.4,26.5,0.00,Snow,Light Snow,40,2013-04-09 23:53:00
6:53 PM,9.0,1.9,73,30.30,5.0,NNE,15.0,-,0.00,Snow,Light Snow,30,2013-04-10 00:53:00
7:53 PM,8.1,1.9,76,30.33,9.0,NE,11.5,-,0.00,,Overcast,40,2013-04-10 01:53:00
8:53 PM,8.1,3.0,80,30.36,2.0,NNE,10.4,-,0.00,Snow,Light Snow,30,2013-04-10 02:53:00
9:00 PM,8.6,3.2,79,30.10,2.0,NNE,10.4,-,0.00,Snow,Light Snow,30,2013-04-10 03:00:00
9:26 PM,8.6,3.2,79,30.10,1.2,NNE,6.9,-,0.00,Snow,Light Snow,30,2013-04-10 03:26:00
9:46 PM,8.6,3.2,79,30.10,3.0,NNE,9.2,-,0.00,Snow,Light Snow,30,2013-04-10 03:46:00
9:53 PM,8.1,3.0,80,30.35,2.5,NNE,10.4,-,0.00,Snow,Light Snow,30,2013-04-10 03:53:00
10:05 PM,8.6,3.2,79,30.10,3.0,NE,11.5,-,0.00,Snow,Light Snow,40,2013-04-10 04:05:00
10:53 PM,8.1,3.0,80,30.35,4.0,NNE,8.1,-,0.00,Snow,Light Snow,20,2013-04-10 04:53:00
11:06 PM,8.6,3.2,79,30.09,2.0,NE,4.6,-,0.00,Snow,Light Snow,40,2013-04-10 05:06:00
11:13 PM,8.6,3.2,79,30.09,1.5,NNE,3.5,-,0.00,Snow,Light Snow,30,2013-04-10 05:13:00
11:29 PM,8.6,3.2,79,30.09,2.0,Calm,Calm,-,0.01,Snow,Light Snow,0,2013-04-10 05:29:00
11:53 PM,8.1,3.0,80,30.35,4.0,Calm,Calm,-,0.01,Snow,Light Snow,0,2013-04-10 05:53:00